Regional Weather Roundup
Issued by NWS

Home | Current Version | Previous Version | Graphics & Text | Print | Product List | Glossary On
Versions: 1 2 3 4 5 6 7 8 9 10 11 12 13 14 15 16 17 18 19 20 21 22 23 24 25 26 27 28 29 30 31 32 33 34 35 36 37 38 39 40 41 42 43 44 45 46 47 48 49 50
467
ASUS43 KOAX 212302
RWRNE

WEATHER ROUNDUP FOR NEBRASKA
NATIONAL WEATHER SERVICE OMAHA NE
500 PM CST SAT JAN 21 2017

NOTES: SATELLITE DATA IS BEING USED TO AUGMENT CLOUD COVER ABOVE
       12000 FEET.
       "FAIR" INDICATES FEW OR NO CLOUDS BELOW 12,000 FEET WITH NO
       SIGNIFICANT WEATHER AND/OR OBSTRUCTIONS TO VISIBILITY.

  * THESE STATIONS DO NOT REPORT WEATHER SUCH AS RAIN...SNOW OR FOG.

NEZ001>004-019>022-054>056-220000-
NEBRASKA PANHANDLE

CITY           SKY/WX    TMP DP  RH WIND       PRES   REMARKS
SCOTTSBLUFF    CLOUDY    40  30  67 S5        29.45R
ALLIANCE       CLOUDY    40  26  57 NW3       29.45R
CHADRON        CLEAR     35  27  72 W6        29.48R WCI  30
SIDNEY         CLEAR     39  25  57 SE5       29.46R
$$

NEZ057>060-069>072-079>082-220000-
SOUTHWEST NEBRASKA

CITY           SKY/WX    TMP DP  RH WIND       PRES   REMARKS
NORTH PLATTE   CLEAR     47  32  56 W3        29.46R
IMPERIAL       CLOUDY    42  31  64 N8        29.45R
LEXINGTON      CLEAR     48  35  60 NW3       29.45R
MCCOOK         CLEAR     47  28  47 NE3       29.44R
OGALLALA       CLOUDY    44  27  50 CALM      29.47R
$$

NEZ005>010-023>029-035>040-094-220000-
NORTH CENTRAL NEBRASKA

CITY           SKY/WX    TMP DP  RH WIND       PRES   REMARKS
VALENTINE      CLEAR     42  30  62 NW8       29.47R
AINSWORTH      CLEAR     44  32  63 NW8       29.46R
BROKEN BOW     CLEAR     48  37  65 SE3       29.45R
O`NEILL        CLEAR     47  32  55 NW7       29.45R
ORD            PTCLDY    50  33  52 CALM      29.45R
THEDFORD       CLEAR     47  28  46 NW8       29.46R
$$

NEZ041-046>049-061>064-073>077-083>087-220000-
SOUTH CENTRAL NEBRASKA

CITY           SKY/WX    TMP DP  RH WIND       PRES   REMARKS
GRAND ISLAND   CLEAR     49  39  68 CALM      29.46R
AURORA         CLEAR     49  40  72 CALM      29.46R
HASTINGS       CLEAR     49  39  68 SW3       29.46R
HEBRON         CLEAR     50  39  67 S6        29.47R
HOLDREGE       CLEAR     48  35  60 CALM      29.45R
KEARNEY *      CLEAR    N/A N/A N/A MISG        N/A
YORK           CLEAR     48  41  76 CALM      29.46S
$$

NEZ011>018-030>034-042>045-220000-
NORTHEAST NEBRASKA

CITY           SKY/WX    TMP DP  RH WIND       PRES   REMARKS
NORFOLK        CLEAR     47  34  60 W5        29.45R
ALBION         CLEAR     47  23  38 SW5       29.46R
BLAIR          CLEAR     48  40  75 SW6       29.47R
FREMONT        CLEAR     47  38  70 SW5       29.48R
TEKAMAH        CLEAR     47  40  76 SW6       29.47R
WAYNE          CLEAR     46  38  74 NW3       29.46R
$$

NEZ050>053-065>068-078-088>093-220000-
SOUTHEAST NEBRASKA

CITY           SKY/WX    TMP DP  RH WIND       PRES   REMARKS
LINCOLN        CLEAR     52  37  56 W5        29.49R
OMAHA EPPLEY   PTCLDY    51  37  58 W3        29.47R
BEATRICE       CLEAR     51  40  65 S3        29.47R
FALLS CITY     CLEAR     52  39  61 SW3       29.48R
NEBRASKA CITY  CLEAR     49  38  64 CALM      29.49R
PLATTSMOUTH    CLEAR     50  37  62 SW3       29.48R
$$

NEZ044-045-051>053-067-220000-
OMAHA AREA

CITY           SKY/WX    TMP DP  RH WIND       PRES   REMARKS
OMAHA EPPLEY   PTCLDY    51  37  58 W3        29.47R
BLAIR          CLEAR     48  40  75 SW6       29.47R
FREMONT        CLEAR     47  38  70 SW5       29.48R
MILLARD        CLEAR     52  40  61 W3        29.48R
OFFUTT AFB     CLEAR     49  40  70 W6        29.48R
PLATTSMOUTH    CLEAR     50  37  62 SW3       29.48R
WAHOO          FAIR      48  39  71 W6        29.48R
$$




USA.gov is the U.S. government's official web portal to all federal, state and local government web resources and services.